• în România
  • Lista ţărilor
  • Pe 7 zile
  • Temperatura apei
  • Hartă satelitară
  • Meteo pe hartă
  • Widget-uri
  • user-avatar
    Intrare

    Meteo pe oră la Makarska

    Astăzi, 23 Septembrie, Duminică

    Timp Temperatura Precipitaţii Vânt Presiune Umiditate
    00:00 +23°C° 0 mm 2 m/s 763 mmHg 81%
    01:00 +23°C° 0 mm 1 m/s 763 mmHg 84%
    02:00 +23°C° 0 mm 1 m/s 763 mmHg 84%
    03:00 +23°C° 0 mm 1 m/s 763 mmHg 83%
    04:00 +23°C° 0 mm 2 m/s 762 mmHg 83%
    05:00 +24°C° 0 mm 2 m/s 762 mmHg 81%
    06:00 +24°C° 0 mm 2 m/s 763 mmHg 79%
    07:00 +25°C° 0 mm 2 m/s 763 mmHg 77%
    08:00 +26°C° 0 mm 2 m/s 763 mmHg 72%
    09:00 +27°C° 0 mm 2 m/s 763 mmHg 67%
    10:00 +29°C° 0 mm 3 m/s 763 mmHg 62%
    11:00 +29°C° 0 mm 3 m/s 763 mmHg 61%
    12:00 +30°C° 0 mm 3 m/s 762 mmHg 60%
    13:00 +30°C° 0 mm 3 m/s 762 mmHg 59%
    14:00 +30°C° 0 mm 3 m/s 762 mmHg 60%
    15:00 +29°C° 0 mm 3 m/s 761 mmHg 62%
    16:00 +29°C° 0 mm 3 m/s 761 mmHg 63%
    17:00 +28°C° 0 mm 3 m/s 761 mmHg 68%
    18:00 +27°C° 0 mm 3 m/s 760 mmHg 73%
    19:00 +25°C° 0 mm 3 m/s 760 mmHg 78%
    20:00 +25°C° 0 mm 3 m/s 760 mmHg 79%
    21:00 +25°C° 0 mm 4 m/s 760 mmHg 79%
    22:00 +25°C° 0 mm 4 m/s 760 mmHg 79%
    23:00 +25°C° 0 mm 5 m/s 759 mmHg 80%

    Mâine, 24 Septembrie, Luni

    Timp Temperatura Precipitaţii Vânt Presiune Umiditate
    00:00 +23°C° 0 mm 5 m/s 759 mmHg 80%
    01:00 +23°C° 0 mm 5 m/s 759 mmHg 80%
    02:00 +23°C° 0 mm 5 m/s 758 mmHg 80%
    03:00 +23°C° 0 mm 5 m/s 758 mmHg 81%
    04:00 +23°C° 0 mm 5 m/s 758 mmHg 82%
    05:00 +23°C° 0 mm 5 m/s 758 mmHg 82%
    06:00 +25°C° 0 mm 4 m/s 759 mmHg 82%
    07:00 +25°C° 0 mm 4 m/s 759 mmHg 82%
    08:00 +25°C° 0.5 mm 5 m/s 760 mmHg 79%
    09:00 +24°C° 0.5 mm 6 m/s 761 mmHg 76%
    10:00 +23°C° 0.5 mm 7 m/s 763 mmHg 73%
    11:00 +22°C° 0.3 mm 8 m/s 763 mmHg 68%
    12:00 +19°C° 0.3 mm 9 m/s 763 mmHg 63%
    13:00 +18°C° 0.3 mm 11 m/s 764 mmHg 58%
    14:00 +18°C° 0 mm 10 m/s 764 mmHg 57%
    15:00 +18°C° 0 mm 9 m/s 764 mmHg 55%
    16:00 +17°C° 0 mm 9 m/s 764 mmHg 53%
    17:00 +17°C° 0 mm 8 m/s 765 mmHg 50%
    18:00 +17°C° 0 mm 8 m/s 765 mmHg 47%
    19:00 +17°C° 0 mm 7 m/s 766 mmHg 45%
    20:00 +16°C° 0.1 mm 7 m/s 766 mmHg 45%
    21:00 +16°C° 0.1 mm 6 m/s 767 mmHg 44%
    22:00 +16°C° 0.1 mm 6 m/s 768 mmHg 44%
    23:00 +15°C° 0 mm 6 m/s 768 mmHg 46%

    Poimâine, 25 Septembrie, Marţi

    Timp Temperatura Precipitaţii Vânt Presiune Umiditate
    00:00 +15°C° 0 mm 6 m/s 768 mmHg 48%
    01:00 +14°C° 0 mm 6 m/s 768 mmHg 50%
    02:00 +13°C° 0 mm 6 m/s 769 mmHg 52%
    03:00 +13°C° 0 mm 6 m/s 769 mmHg 53%
    04:00 +11°C° 0 mm 6 m/s 769 mmHg 55%
    05:00 +13°C° 0 mm 6 m/s 769 mmHg 55%
    06:00 +13°C° 0 mm 6 m/s 770 mmHg 55%
    07:00 +13°C° 0 mm 6 m/s 770 mmHg 55%
    08:00 +14°C° 0 mm 6 m/s 770 mmHg 49%
    09:00 +16°C° 0 mm 6 m/s 770 mmHg 44%
    10:00 +17°C° 0 mm 6 m/s 770 mmHg 39%
    11:00 +19°C° 0 mm 6 m/s 770 mmHg 38%
    12:00 +20°C° 0 mm 6 m/s 770 mmHg 37%
    13:00 +20°C° 0 mm 6 m/s 770 mmHg 35%
    14:00 +20°C° 0 mm 6 m/s 770 mmHg 37%
    15:00 +20°C° 0 mm 6 m/s 770 mmHg 38%
    16:00 +19°C° 0 mm 6 m/s 769 mmHg 39%
    17:00 +17°C° 0 mm 6 m/s 770 mmHg 42%
    18:00 +15°C° 0 mm 6 m/s 771 mmHg 45%
    19:00 +14°C° 0 mm 6 m/s 771 mmHg 48%
    20:00 +13°C° 0 mm 6 m/s 771 mmHg 49%
    21:00 +13°C° 0 mm 5 m/s 772 mmHg 50%
    22:00 +12°C° 0 mm 5 m/s 772 mmHg 51%
    23:00 +12°C° 0 mm 5 m/s 772 mmHg 52%

    26 Septembrie, Miercuri

    Timp Temperatura Precipitaţii Vânt Presiune Umiditate
    00:00 +10°C° 0 mm 5 m/s 772 mmHg 52%
    01:00 +10°C° 0 mm 5 m/s 773 mmHg 53%
    02:00 +10°C° 0 mm 4 m/s 773 mmHg 54%
    03:00 +10°C° 0 mm 4 m/s 773 mmHg 55%
    04:00 +10°C° 0 mm 4 m/s 773 mmHg 56%
    05:00 +10°C° 0 mm 4 m/s 773 mmHg 56%
    06:00 +10°C° 0 mm 4 m/s 773 mmHg 56%
    07:00 +11°C° 0 mm 4 m/s 773 mmHg 56%
    08:00 +13°C° 0 mm 4 m/s 773 mmHg 49%
    09:00 +16°C° 0 mm 3 m/s 773 mmHg 42%
    10:00 +18°C° 0 mm 3 m/s 773 mmHg 35%
    11:00 +19°C° 0 mm 2 m/s 772 mmHg 32%
    12:00 +21°C° 0 mm 2 m/s 772 mmHg 29%
    13:00 +23°C° 0 mm 2 m/s 772 mmHg 26%
    14:00 +23°C° 0 mm 2 m/s 772 mmHg 29%
    15:00 +23°C° 0 mm 2 m/s 771 mmHg 31%
    16:00 +22°C° 0 mm 3 m/s 771 mmHg 34%
    17:00 +20°C° 0 mm 3 m/s 771 mmHg 37%
    18:00 +19°C° 0 mm 3 m/s 771 mmHg 41%
    19:00 +17°C° 0 mm 3 m/s 772 mmHg 45%
    20:00 +16°C° 0 mm 3 m/s 772 mmHg 46%
    21:00 +16°C° 0 mm 3 m/s 772 mmHg 47%
    22:00 +14°C° 0 mm 3 m/s 772 mmHg 48%
    23:00 +14°C° 0 mm 3 m/s 772 mmHg 47%

    27 Septembrie, Joi

    Timp Temperatura Precipitaţii Vânt Presiune Umiditate
    00:00 +14°C° 0 mm 3 m/s 772 mmHg 46%
    01:00 +13°C° 0 mm 3 m/s 772 mmHg 45%
    02:00 +14°C° 0 mm 2 m/s 771 mmHg 44%
    03:00 +14°C° 0 mm 2 m/s 771 mmHg 42%
    04:00 +14°C° 0 mm 2 m/s 771 mmHg 40%
    05:00 +15°C° 0 mm 2 m/s 770 mmHg 40%
    06:00 +15°C° 0 mm 2 m/s 770 mmHg 39%
    07:00 +16°C° 0 mm 2 m/s 770 mmHg 39%
    08:00 +18°C° 0 mm 2 m/s 770 mmHg 35%
    09:00 +20°C° 0 mm 2 m/s 770 mmHg 31%
    10:00 +24°C° 0 mm 1 m/s 770 mmHg 27%
    11:00 +24°C° 0 mm 2 m/s 769 mmHg 27%
    12:00 +25°C° 0 mm 2 m/s 769 mmHg 27%
    13:00 +26°C° 0 mm 3 m/s 769 mmHg 27%
    14:00 +26°C° 0 mm 3 m/s 768 mmHg 31%
    15:00 +26°C° 0 mm 4 m/s 768 mmHg 35%
    16:00 +26°C° 0 mm 4 m/s 767 mmHg 39%
    17:00 +23°C° 0 mm 4 m/s 767 mmHg 42%
    18:00 +22°C° 0 mm 4 m/s 767 mmHg 45%
    19:00 +20°C° 0 mm 4 m/s 767 mmHg 48%
    20:00 +20°C° 0 mm 4 m/s 767 mmHg 47%
    21:00 +19°C° 0 mm 4 m/s 767 mmHg 45%
    22:00 +19°C° 0 mm 3 m/s 767 mmHg 44%
    23:00 +18°C° 0 mm 3 m/s 767 mmHg 42%

    28 Septembrie, Vineri

    Timp Temperatura Precipitaţii Vânt Presiune Umiditate
    00:00 +18°C° 0 mm 3 m/s 766 mmHg 41%
    01:00 +18°C° 0 mm 3 m/s 766 mmHg 40%
    02:00 +18°C° 0 mm 3 m/s 766 mmHg 39%
    03:00 +17°C° 0 mm 3 m/s 765 mmHg 37%
    04:00 +17°C° 0 mm 3 m/s 765 mmHg 36%
    05:00 +18°C° 0 mm 3 m/s 765 mmHg 37%
    06:00 +18°C° 0 mm 2 m/s 764 mmHg 38%
    07:00 +18°C° 0 mm 2 m/s 764 mmHg 38%
    08:00 +21°C° 0 mm 2 m/s 764 mmHg 34%
    09:00 +24°C° 0 mm 1 m/s 764 mmHg 30%
    10:00 +26°C° 0 mm 1 m/s 764 mmHg 26%
    11:00 +27°C° 0 mm 1 m/s 763 mmHg 27%
    12:00 +28°C° 0 mm 1 m/s 763 mmHg 27%
    13:00 +29°C° 0 mm 1 m/s 763 mmHg 27%
    14:00 +29°C° 0 mm 2 m/s 762 mmHg 30%
    15:00 +28°C° 0 mm 2 m/s 762 mmHg 34%
    16:00 +28°C° 0 mm 2 m/s 762 mmHg 37%
    17:00 +26°C° 0 mm 2 m/s 762 mmHg 41%
    18:00 +24°C° 0 mm 2 m/s 762 mmHg 45%
    19:00 +21°C° 0 mm 2 m/s 762 mmHg 49%
    20:00 +21°C° 0 mm 2 m/s 762 mmHg 50%
    21:00 +21°C° 0 mm 2 m/s 762 mmHg 51%
    22:00 +20°C° 0 mm 2 m/s 762 mmHg 52%
    23:00 +20°C° 0 mm 2 m/s 762 mmHg 51%
    Arată mai mult